TimeMDT,TemperatureF,Dew PointF,Humidity,Sea Level PressureIn,VisibilityMPH,Wind Direction,Wind SpeedMPH,Gust SpeedMPH,PrecipitationIn,Events,Conditions,WindDirDegrees,DateUTC
12:53 AM,57.0,46.9,69,29.65,10.0,West,6.9,-,N/A,,Mostly Cloudy,270,2013-09-18 06:53:00
1:53 AM,55.9,46.9,72,29.70,10.0,West,8.1,-,N/A,,Overcast,260,2013-09-18 07:53:00
2:53 AM,55.0,45.0,69,29.74,10.0,SW,17.3,23.0,0.01,Rain,Light Rain,230,2013-09-18 08:53:00
3:53 AM,53.1,44.1,71,29.72,10.0,South,13.8,27.6,0.03,,Overcast,180,2013-09-18 09:53:00
4:53 AM,53.1,42.1,66,29.71,10.0,SSW,18.4,26.5,N/A,,Overcast,200,2013-09-18 10:53:00
5:53 AM,48.9,42.1,77,29.80,10.0,South,16.1,24.2,N/A,,Clear,190,2013-09-18 11:53:00
6:53 AM,48.0,41.0,77,29.81,10.0,SSW,18.4,26.5,N/A,,Clear,200,2013-09-18 12:53:00
7:53 AM,48.0,39.9,74,29.84,10.0,South,20.7,34.5,N/A,,Scattered Clouds,190,2013-09-18 13:53:00
8:05 AM,48.2,39.2,71,29.91,10.0,SSW,18.4,33.4,N/A,,Mostly Cloudy,200,2013-09-18 14:05:00
8:53 AM,48.9,39.9,71,29.86,10.0,South,19.6,33.4,N/A,,Mostly Cloudy,190,2013-09-18 14:53:00
9:53 AM,48.9,41.0,74,29.88,10.0,SSW,19.6,28.8,N/A,,Overcast,210,2013-09-18 15:53:00
10:53 AM,48.9,41.0,74,29.89,10.0,SSW,16.1,26.5,N/A,,Overcast,200,2013-09-18 16:53:00
11:53 AM,52.0,42.1,69,29.90,10.0,SSW,19.6,32.2,N/A,Thunderstorm,Overcast,210,2013-09-18 17:53:00
12:14 PM,53.6,42.8,67,29.97,10.0,SSW,20.7,32.2,N/A,Thunderstorm,Overcast,210,2013-09-18 18:14:00
12:36 PM,53.6,42.8,67,29.97,10.0,SSW,20.7,29.9,N/A,Thunderstorm,Overcast,200,2013-09-18 18:36:00
12:53 PM,54.0,41.0,62,29.90,10.0,SSW,19.6,29.9,N/A,Thunderstorm,Overcast,210,2013-09-18 18:53:00
1:05 PM,55.4,41.0,58,29.97,10.0,SSW,17.3,31.1,N/A,,Overcast,200,2013-09-18 19:05:00
1:53 PM,57.9,37.9,47,29.89,10.0,SSW,21.9,32.2,N/A,,Partly Cloudy,200,2013-09-18 19:53:00
2:53 PM,61.0,36.0,39,29.88,10.0,SW,17.3,28.8,N/A,,Scattered Clouds,220,2013-09-18 20:53:00
3:53 PM,59.0,34.0,39,29.91,10.0,WSW,15.0,-,N/A,,Overcast,250,2013-09-18 21:53:00
4:27 PM,50.0,41.0,71,30.02,10.0,Variable,4.6,-,0.01,Rain-Thunderstorm,Light Thunderstorms and Rain,0,2013-09-18 22:27:00
4:42 PM,51.8,42.8,71,30.02,10.0,Calm,Calm,-,0.01,Rain,Light Rain,0,2013-09-18 22:42:00
4:53 PM,52.0,42.1,69,29.97,10.0,NNE,9.2,-,0.02,Rain,Light Rain,20,2013-09-18 22:53:00
5:53 PM,50.0,41.0,71,29.99,10.0,East,9.2,-,0.00,,Partly Cloudy,80,2013-09-18 23:53:00
6:43 PM,46.4,42.8,87,30.08,1.8,NE,6.9,-,0.04,Rain,Heavy Rain,40,2013-09-19 00:43:00
6:51 PM,46.4,41.0,81,30.07,2.0,ENE,9.2,-,0.06,Rain,Rain,70,2013-09-19 00:51:00
6:53 PM,46.0,41.0,83,30.05,2.5,East,8.1,-,0.06,Rain,Rain,80,2013-09-19 00:53:00
7:01 PM,46.4,41.0,81,30.06,8.0,East,8.1,-,0.01,Rain,Light Rain,80,2013-09-19 01:01:00
7:53 PM,46.0,41.0,83,30.05,10.0,ESE,4.6,-,0.04,Rain,Light Rain,120,2013-09-19 01:53:00
8:53 PM,46.9,41.0,80,30.07,10.0,ESE,3.5,-,0.00,,Overcast,120,2013-09-19 02:53:00
9:53 PM,46.0,41.0,83,30.09,10.0,ENE,3.5,-,0.00,Rain,Light Rain,70,2013-09-19 03:53:00
10:53 PM,44.1,41.0,89,30.10,10.0,NE,4.6,-,0.01,,Mostly Cloudy,50,2013-09-19 04:53:00
11:53 PM,42.1,39.9,92,30.12,10.0,North,5.8,-,N/A,,Scattered Clouds,10,2013-09-19 05:53:00